Regional Weather Roundup
Issued by NWS

Home | Current Version | Previous Version | Text Only | Print | Product List | Glossary On
Versions: 1 2 3 4 5 6 7 8 9 10 11 12 13 14 15 16 17 18 19 20 21 22 23 24 25 26 27 28 29 30 31 32 33 34 35 36 37 38 39 40 41 42 43 44 45 46 47 48 49 50
479
ASUS45 KREV 272310
RWRNV
NEVADA REGIONAL WEATHER ROUNDUP
NATIONAL WEATHER SERVICE RENO NV
400 PM PDT MON MAR 27 2017

NOTE: "FAIR" INDICATES FEW OR NO CLOUDS BELOW 12,000 FEET WITH NO
SIGNIFICANT WEATHER AND/OR OBSTRUCTIONS TO VISIBILITY.

NVZ001-003-004-280000-
WESTERN NEVADA

CITY           SKY/WX    TMP DP  RH WIND       PRES   REMARKS
RENO           PTSUNNY   49  22  34 NW13      30.14R
CARSON CITY    PTSUNNY   50  21  32 N18G24    30.13S
MINDEN         FAIR      50  23  34 W17       30.11F
FALLON         LGT RAIN  51  24  34 N15G35    30.09S
LOVELOCK       MOSUNNY   52  25  35 NW22      30.10R HAZE
HAWTHORNE      MOSUNNY   52  18  25 N24       30.07R
$$

NVZ002-CAZ072-073-280000-
NORTHERN AND CENTRAL SIERRA

CITY           SKY/WX    TMP DP  RH WIND       PRES   REMARKS
S. LAKE TAHOE  CLOUDY    39  22  50 N9        30.12S
TRUCKEE        PTSUNNY   39  25  56 NW13      30.16R
SQUAW VLY 8000 NOT AVBL
SUSANVILLE     PTSUNNY   48  27  43 NW10      30.17R
MAMMOTH LAKES  PTSUNNY   42  16  34 N14G20    30.05R
BRIDGEPORT       N/A     43  15  32 NE16G24   30.06R
$$

NVZ030-031-036-280000-
NORTHERN NEVADA

CITY           SKY/WX    TMP DP  RH WIND       PRES   REMARKS
ELKO           CLOUDY    46  31  55 MISG      30.01R
WINNEMUCCA     MOSUNNY   49  29  46 N23G31    30.09R
WENDOVER       PTSUNNY   51  28  41 NW17G30   29.90S
$$

NVZ035-037-280000-
CENTRAL NEVADA

CITY           SKY/WX    TMP DP  RH WIND       PRES   REMARKS
ELY            CLOUDY    41  28  60 NW16G22   29.92R
EUREKA           N/A     41  26  55 N22G32    29.99R
$$

NVZ013-014-280000-
SOUTH CENTRAL NEVADA

CITY           SKY/WX    TMP DP  RH WIND       PRES   REMARKS
TONOPAH        SUNNY     51  14  22 N33G47    29.98R
$$

NVZ017-020-022-280000-
SOUTHERN NEVADA

CITY           SKY/WX    TMP DP  RH WIND       PRES   REMARKS
LAS VEGAS      PTSUNNY   69  27  20 N10       29.77F
N. LAS VEGAS   MOSUNNY   74  13   9 NW20G30   29.77F
NELLIS AFB     MOSUNNY   67  39  34 N22       29.78F
HENDERSON      PTSUNNY   66  29  24 CALM      29.81F
MERCURY        MOSUNNY   66  18  15 NW23G32   29.86S
$$




USA.gov is the U.S. government's official web portal to all federal, state and local government web resources and services.